Location: State Camp
(41.2367°N, 77.7828°W)
Time: 05:31:59
(UTC-04:00)

ADEOS Rocket - Visible Passes

Search period start: 29 May 2016 00:00
Search period end: 08 June 2016 00:00
Orbit: 859 x 1307 km, 98.7° (Epoch: 27 May)

Date Brightness Start Highest point End Pass type
(mag) Time Alt. Az. Time Alt. Az. Time Alt. Az.
30 May 5.5 04:43:25 10° NE 04:46:48 15° E 04:50:02 10° ESE visible
01 Jun 5.3 04:50:40 10° NE 04:54:36 18° E 04:58:20 10° SE visible
03 Jun 5.2 04:58:01 10° NE 05:02:22 21° E 05:06:30 10° SE visible
05 Jun 5.1 05:05:26 10° NE 05:10:07 25° E 05:14:34 10° SSE visible
